This is the latest recevied weather packets stored in our database for station/object LU4EGV-13. If no packets are shown the sender has not sent any weather packets the latest 10 day(s).
| Time | Temp. | Humidity | Pressure | Rain* | Wind** | Luminosity | Snow |
|---|---|---|---|---|---|---|---|
| 1777582990 | 22.22° C | 38% | 1010.7 hPa | 0 mm | - | - | - |
| 1777582383 | 22.78° C | 37% | 1010.8 hPa | 0 mm | - | - | - |
| 1777581789 | 23.89° C | 36% | 1010.8 hPa | 0 mm | - | - | - |
| 1777581171 | 24.44° C | 35% | 1010.6 hPa | 0 mm | - | - | - |
| 1777580565 | 25° C | 35% | 1010.8 hPa | 0 mm | - | - | - |
| 1777579959 | 24.44° C | 36% | 1010.7 hPa | 0 mm | - | - | - |
| 1777579353 | 25° C | 34% | 1010.7 hPa | 0 mm | - | - | - |
| 1777578746 | 25° C | 35% | 1010.9 hPa | 0 mm | - | - | - |
| 1777578141 | 25.56° C | 34% | 1010.9 hPa | 0 mm | - | - | - |
| 1777577534 | 25.56° C | 34% | 1011.1 hPa | 0 mm | - | - | - |
| 1777576928 | 25.56° C | 33% | 1011.1 hPa | 0 mm | - | - | - |
| 1777576322 | 25.56° C | 32% | 1011.2 hPa | 0 mm | - | - | - |
| 1777575716 | 26.67° C | 31% | 1011.3 hPa | 0 mm | - | - | - |
| 1777575109 | 26.67° C | 30% | 1011.2 hPa | 0 mm | - | - | - |
| 1777574503 | 26.67° C | 26% | 1011.3 hPa | 0 mm | - | - | - |
| 1777573897 | 26.67° C | 23% | 1011.1 hPa | 0 mm | - | - | - |
| 1777573290 | 26.11° C | 22% | 1011.3 hPa | 0 mm | - | - | - |
| 1777572685 | 26.11° C | 23% | 1011.3 hPa | 0 mm | - | - | - |
| 1777572082 | 25.56° C | 23% | 1011.6 hPa | 0 mm | - | - | - |
| 1777571472 | 25.56° C | 22% | 1011.7 hPa | 0 mm | - | - | - |
| 1777570866 | 25° C | 21% | 1011.7 hPa | 0 mm | - | - | - |
| 1777570261 | 25° C | 21% | 1011.7 hPa | 0 mm | - | - | - |
| 1777569654 | 25° C | 23% | 1012.1 hPa | 0 mm | - | - | - |
| 1777569071 | 25° C | 24% | 1012.1 hPa | 0 mm | - | - | - |
| 1777568464 | 25.56° C | 24% | 1012 hPa | 0 mm | - | - | - |
* Rain latest hour (hover to see other rain measurements)
** Current wind speed in m/s (hover to see current wind gust speed)